{"data":{"norad_id":69835,"epoch":"2026-09-19T16:11:07.623456Z","epoch_age_seconds":89119,"freshness":"FRESH","line1":"1 69835U 26154S   26262.67439379  .00013998  00000+0  42466-3 0  9999","line2":"2 69835  53.1597 335.4245 0001110  89.6414 270.4716 15.34399268 13117","mean_motion":15.34399268,"eccentricity":0.000111,"inclination_deg":53.1597,"raan_deg":335.4245,"arg_perigee_deg":89.6414,"mean_anomaly_deg":270.4716,"bstar":0.00042466,"rev_number":1311,"period_min":93.847802852315,"perigee_km":461.94608235807,"apogee_km":463.46474937439,"semimajor_km":6840.8424158662,"source":"CELESTRAK","updated_at":"2026-09-20T09:00:44.295906Z"}}